Snowfall_Accumulation
0.0 0.0 0.0 0.0 0.0 0.0 0.0 0.0 15.2 0.0 0.0 11.7 18.9 20.6 4.7 0.0 0.0 0.0 0.2 0.5 1.0 2.6 2.5 4.2 6.5 5.1 4.0 2.2 3.9 0.0 0.0 0.1 0.8 1.2 0.0 0.0 0.0 0.0 0.1 5.3 3.6 4.8 4.8 1.2
0.0 0.0 0.0 0.0 0.0 0.0 0.0 13.8 4.4 0.0 0.0 32.5 19.6 1.3 0.6 0.1 0.0 0.2 0.8 1.0 0.3 1.3 1.8 3.1 2.4 2.7 1.2 0.3 5.1 1.1 0.0 0.3 0.9 1.8 0.0 0.0 0.3 0.1 0.1 2.1 3.4 2.7 4.2 0.0
0.0 0.0 0.0 0.0 0.0 0.0 0.0 12.6 42.1 0.0 0.0 0.6 8.3 5.8 2.6 0.9 0.0 0.0 0.0 0.6 0.1 1.9 2.1 2.2 0.3 0.0 0.4 0.0 1.9 0.0 0.0 0.0 0.0 0.3 1.6 1.2 1.8 0.0 0.6 3.8 5.6 0.2 0.4 0.1
0.0 0.0 0.0 0.0 0.0 0.0 0.0 10.8 32.5 13.4 41.4 33.9 19.4 18.0 15.9 11.4 10.9 5.4 2.6 4.7 4.4 5.4 8.8 2.8 1.6 0.1 0.3 0.0 0.0 2.6 0.7 4.2 0.0 0.0 0.6 1.9 2.0 0.7 0.4 3.1 0.5 2.4 0.0 0.0
0.0 0.0 0.0 0.0 0.0 0.0 0.0 8.4 10.9 11.9 21.9 19.6 19.9 20.9 22.3 13.1 12.4 13.5 10.7 12.5 10.5 10.6 15.7 11.4 11.5 7.8 6.4 5.2 1.0 2.4 5.8 11.9 5.3 2.7 0.0 0.9 2.1 0.4 0.4 0.3 0.1 0.2 0.0 0.0
0.0 0.0 0.0 0.0 0.0 0.0 0.0 0.0 0.0 8.5 11.8 16.5 21.0 23.2 13.0 10.7 7.4 4.7 5.4 8.5 8.9 7.7 7.4 4.6 1.9 1.4 1.5 4.8 7.5 8.4 13.4 15.9 15.0 10.1 1.6 3.6 3.5 0.3 0.1 0.0 0.4 0.6 3.2 3.6
0.0 0.0 0.0 0.0 0.0 0.0 0.0 0.0 0.0 20.2 21.4 13.2 13.6 12.4 8.5 7.3 5.9 10.4 4.1 4.4 8.9 0.0 0.0 0.0 0.0 0.3 0.4 0.6 0.8 0.7 9.1 10.7 18.5 14.2 6.5 15.0 0.4 0.1 0.0 0.2 0.7 0.6 0.4 0.0
0.0 0.0 0.0 0.0 0.0 0.0 0.0 0.0 0.2 18.1 22.2 7.9 7.4 7.8 7.8 5.8 4.0 9.1 6.8 2.4 1.2 0.3 0.7 8.9 8.1 4.4 5.8 3.3 0.8 1.0 1.7 12.1 23.5 18.3 11.8 2.4 0.5 0.0 0.0 0.5 1.0 0.2 0.0 0.0
0.0 0.0 0.0 0.0 0.0 0.0 0.0 0.0 0.0 5.3 25.0 9.5 5.3 6.1 7.1 10.1 13.3 12.8 6.0 0.0 0.0 0.7 8.6 15.4 14.6 6.1 2.9 1.9 1.8 0.6 1.3 7.5 26.9 26.1 20.5 7.7 0.0 0.0 0.0 0.1 1.4 0.0 0.0 0.0
0.0 0.0 0.0 0.0 0.0 0.0 0.0 0.0 0.0 1.3 25.2 5.3 3.3 7.8 9.3 9.0 11.2 13.0 8.0 6.9 4.7 1.9 16.2 19.9 12.3 4.8 2.8 3.6 1.7 2.1 3.6 9.2 23.4 21.4 25.8 10.1 1.5 0.2 0.0 1.4 0.7 0.1 0.0 0.0
0.0 0.0 0.0 0.0 0.0 0.0 0.0 0.0 0.0 0.0 15.1 5.1 3.5 4.9 7.0 8.3 8.9 12.0 9.7 13.3 14.6 16.7 23.5 16.5 9.4 7.8 4.7 3.5 2.6 2.5 2.6 4.3 6.0 11.1 20.7 8.9 0.7 0.2 0.8 0.4 0.0 0.1 0.0 0.0
0.0 0.0 0.0 0.0 0.0 0.0 0.0 0.0 0.0 0.0 9.5 10.3 0.0 0.0 0.0 6.3 7.1 8.9 10.8 13.1 9.2 9.5 15.6 15.4 8.5 7.1 5.8 3.2 4.5 1.6 4.8 3.6 3.1 2.1 2.3 0.5 0.8 1.1 0.8 0.6 0.3 0.0 0.2 0.0
0.0 0.0 0.0 0.0 0.0 0.0 0.0 0.0 0.0 0.0 18.5 11.7 3.6 3.7 1.6 0.2 3.3 1.3 15.2 12.0 8.6 9.3 6.0 11.8 12.0 12.9 7.2 6.2 4.5 2.4 1.7 2.9 4.0 3.5 1.7 0.4 0.1 0.7 0.4 0.0 0.1 0.0 0.1 0.1
0.0 0.0 0.0 0.0 0.0 0.0 0.0 0.0 0.0 0.0 14.4 19.8 5.6 0.0 1.4 0.0 0.0 0.0 2.5 5.0 4.9 7.8 9.3 21.7 19.6 14.9 3.5 2.8 1.7 1.8 1.3 0.9 1.4 2.8 3.4 1.6 1.4 0.6 0.5 0.3 0.0 0.0 0.0 0.0
0.0 0.0 0.0 0.0 0.0 0.0 0.0 0.0 0.0 0.0 4.2 16.1 5.1 1.8 1.8 0.0 0.0 0.0 0.0 1.1 4.9 15.0 22.2 27.0 18.9 8.2 8.0 6.4 5.0 4.7 2.7 2.4 1.5 0.8 0.3 1.4 0.5 0.2 0.1 1.2 0.6 0.3 0.1 0.0
0.0 0.0 0.0 0.0 0.0 0.0 0.0 10.5 0.0 0.0 0.0 26.1 16.4 3.0 2.6 0.6 0.0 0.3 1.3 0.9 6.9 14.3 19.6 19.9 11.1 6.1 8.0 14.4 6.1 2.6 2.6 2.8 3.1 3.1 1.5 1.7 1.1 1.0 0.9 1.6 1.2 0.9 0.4 0.0
0.0 0.0 0.0 0.0 0.0 0.0 13.5 5.2 0.5 0.0 0.0 28.2 20.7 9.3 3.4 1.7 0.6 0.9 1.3 1.7 3.9 10.1 17.7 13.7 7.9 5.8 11.3 17.7 6.5 2.4 2.6 2.9 3.5 4.7 4.1 3.3 3.2 3.4 1.7 2.1 2.5 2.9 2.0 0.6
0.0 0.0 0.0 0.0 0.0 0.0 7.8 2.0 0.0 0.0 7.0 25.0 27.9 10.9 4.8 2.2 5.6 4.6 1.3 5.7 8.8 10.0 9.9 4.6 2.2 2.8 10.2 11.2 2.7 3.0 3.1 3.1 2.8 3.4 3.7 4.1 4.9 4.5 4.3 3.9 3.5 3.6 4.2 4.6
0.0 0.0 0.0 0.0 3.3 7.6 5.8 0.0 0.0 0.0 7.3 22.1 17.3 8.3 6.8 1.3 3.7 4.2 5.6 6.0 15.6 5.9 7.1 1.6 1.6 3.8 6.8 1.8 2.4 2.6 2.7 3.4 3.8 4.2 4.0 4.4 3.6 3.4 3.6 3.7 3.8 3.1 4.2 4.2
0.0 0.0 12.7 28.0 8.7 0.0 0.0 2.3 16.5 23.6 22.1 17.9 9.5 5.9 7.0 3.7 5.9 6.3 5.6 7.7 7.2 8.7 2.1 0.2 6.7 0.8 1.1 1.9 3.1 3.9 4.3 4.1 4.9 5.2 7.1 4.6 4.2 2.7 3.4 3.6 3.8 3.1 3.5 3.7
2.1 23.7 21.3 6.3 1.0 1.7 7.8 35.3 33.1 22.8 16.4 6.2 5.2 5.2 4.7 1.0 7.8 7.3 4.8 12.2 7.8 10.2 5.9 3.5 4.8 4.0 6.6 5.2 5.1 5.7 4.7 4.7 4.9 5.1 5.6 6.0 7.3 6.8 4.8 4.1 3.4 2.8 2.9 2.8
0.2 0.0 0.8 4.4 13.2 38.1 38.2 26.6 14.0 4.4 2.8 2.3 6.3 5.3 2.7 4.2 2.4 9.3 8.2 9.8 9.3 8.5 8.4 12.4 5.7 6.1 3.2 5.4 6.9 5.9 4.5 5.1 5.1 5.4 6.3 6.3 5.7 6.5 7.0 5.6 5.3 4.9 4.7 4.7
1.0 18.6 37.4 37.8 37.8 33.7 21.3 8.6 6.4 2.8 4.0 4.8 6.7 5.8 5.8 8.0 10.0 14.2 9.6 11.0 5.6 1.3 7.6 6.1 5.7 3.3 3.8 4.8 5.5 4.9 6.0 8.3 7.0 6.3 6.5 7.1 6.9 6.4 7.5 7.3 5.0 4.8 4.6 4.6
17.9 37.5 35.9 26.2 24.0 9.3 5.7 4.2 3.8 2.4 1.8 1.6 3.1 4.8 8.2 9.0 15.2 14.1 13.4 6.3 5.1 8.4 6.7 5.1 2.2 2.7 3.5 3.9 3.8 4.4 4.2 6.1 6.8 7.7 7.2 7.5 7.8 6.9 6.4 6.0 4.9 4.6 3.5 3.2
33.4 28.7 21.4 13.4 5.9 5.0 5.6 5.0 3.1 2.5 3.2 5.5 6.4 8.6 7.5 9.7 18.1 11.3 6.7 8.3 8.3 8.0 5.4 3.0 1.7 2.1 2.5 2.6 2.8 3.4 4.0 5.3 5.7 5.0 4.6 6.2 6.2 6.7 5.6 4.6 4.7 4.0 3.6 2.9
29.1 21.9 9.7 2.3 2.3 3.6 3.7 4.7 5.2 4.5 4.7 7.0 9.6 13.5 13.2 10.0 11.6 10.3 6.6 7.3 5.1 4.8 2.7 1.4 1.6 1.6 1.4 1.9 1.8 2.7 4.2 4.6 6.0 7.1 4.7 4.3 6.2 6.0 4.7 3.8 3.9 3.6 3.0 3.3
24.6 11.3 2.8 3.0 3.4 5.3 5.6 6.2 7.1 6.9 9.7 13.8 15.5 15.8 7.6 8.9 8.4 6.3 3.9 4.1 3.0 2.8 2.1 1.5 1.3 2.2 2.3 2.2 1.8 2.1 3.1 3.0 4.7 7.3 5.2 5.3 6.8 7.8 6.6 4.7 3.6 3.1 3.5 4.1